Location: Unspecified
(52.1971°N, 0.0000°E)
Time: 15:10:49
(UTC+00:00)

YUBILEINY - Pass Details

Date: 16 December 2019
Orbit: 1478 x 1509 km, 82.5° (Epoch: 23 January)

Event Time Altitude Azimuth Distance (km) Brightness Sun altitude
Rises 04:31:19 0° 344° (NNW) 4,614 ? -31.0°
Reaches altitude 10° 04:36:26 10° 9° (N) 3,630 ? -30.2°
Maximum altitude 04:40:28 14° 37° (NE) 3,341 ? -29.6°
Drops below altitude 10° 04:44:30 10° 65° (ENE) 3,626 ? -28.9°
Sets 04:49:34 0° 91° (E) 4,606 ? -28.2°
